AAL2029 KBOS-KCLT

Flight info

Callsign AAL2029
Flight time 1h 44m
Altitude 38000
Route PATSS7 PATSS NELIE Q75 GVE AIROW CHSLY6
Aircraft A319/M-SDE3FGHIRWY/LB1

Departure

Time 2026-05-04 09:51
Airport Boston Logan International Airport (KBOS)

Arrival

Time 2026-05-04 11:35
Airport Charlotte Douglas International Airport (KCLT)
Time Latitude Longitude Altitude Speed Heading
2026-05-04 09:34 42.36716 -71.01525 14 ft 0 kts 340°
2026-05-04 09:39 42.36715 -71.01525 14 ft 0 kts 340°
2026-05-04 09:39 42.36710 -71.01523 14 ft 2 kts 340°
2026-05-04 09:40 42.36695 -71.01515 14 ft 2 kts 340°
2026-05-04 09:40 42.36682 -71.01513 14 ft 2 kts 25°
2026-05-04 09:40 42.36672 -71.01526 14 ft 0 kts 72°
2026-05-04 09:40 42.36671 -71.01533 14 ft 1 kts 84°
2026-05-04 09:41 42.36671 -71.01538 14 ft 0 kts 80°
2026-05-04 09:42 42.36671 -71.01537 14 ft 0 kts 80°
2026-05-04 09:46 42.36881 -71.01228 14 ft 12 kts 41°
2026-05-04 09:46 42.36953 -71.01144 13 ft 14 kts 41°
2026-05-04 09:46 42.37043 -71.01069 13 ft 16 kts 28°
2026-05-04 09:47 42.37152 -71.00997 10 ft 18 kts 23°
2026-05-04 09:47 42.37274 -71.00920 10 ft 19 kts 25°
2026-05-04 09:49 42.37568 -71.00578 10 ft 0 kts 199°
2026-05-04 09:49 42.37550 -71.00586 10 ft 16 kts 199°
2026-05-04 09:49 42.37196 -71.00758 10 ft 89 kts 200°
2026-05-04 09:51 42.31910 -70.99940 3129 ft 146 kts 187°
2026-05-04 09:51 42.31106 -71.00412 3522 ft 125 kts 242°
2026-05-04 09:51 42.30759 -71.01480 3908 ft 130 kts 257°
2026-05-04 09:51 42.30519 -71.02702 4333 ft 141 kts 260°
2026-05-04 09:52 42.30252 -71.04028 4734 ft 156 kts 255°
2026-05-04 09:52 42.29833 -71.05451 5206 ft 170 kts 255°
2026-05-04 09:52 42.29400 -71.07009 5665 ft 188 kts 255°
2026-05-04 09:52 42.28899 -71.08732 6169 ft 206 kts 254°
2026-05-04 09:53 42.28346 -71.10574 6691 ft 224 kts 253°
2026-05-04 09:53 42.27726 -71.12595 7245 ft 241 kts 253°
2026-05-04 09:53 42.27065 -71.14707 8046 ft 249 kts 252°
2026-05-04 09:53 42.26391 -71.16839 8910 ft 253 kts 252°
2026-05-04 09:54 42.25699 -71.19016 9745 ft 257 kts 252°
2026-05-04 09:54 42.24990 -71.21240 10493 ft 264 kts 252°
2026-05-04 09:54 42.24243 -71.23595 10928 ft 281 kts 252°
2026-05-04 09:54 42.23459 -71.26068 11299 ft 299 kts 251°
2026-05-04 09:55 42.22609 -71.28726 11829 ft 311 kts 251°
2026-05-04 09:55 42.21757 -71.31372 12599 ft 313 kts 251°
2026-05-04 09:55 42.20889 -71.34065 13376 ft 315 kts 251°
2026-05-04 09:55 42.20018 -71.36777 14138 ft 318 kts 251°
2026-05-04 09:56 42.19144 -71.39490 14865 ft 321 kts 251°
2026-05-04 09:56 42.18251 -71.42259 15531 ft 325 kts 251°
2026-05-04 09:56 42.17342 -71.45075 16188 ft 329 kts 251°
2026-05-04 09:56 42.16441 -71.47866 16827 ft 332 kts 251°
2026-05-04 09:57 42.15511 -71.50747 17446 ft 335 kts 251°
2026-05-04 09:57 42.14584 -71.53617 18066 ft 339 kts 251°
2026-05-04 09:57 42.13646 -71.56516 18642 ft 343 kts 251°
2026-05-04 09:57 42.12690 -71.59466 19234 ft 346 kts 251°
2026-05-04 09:58 42.11718 -71.62465 19827 ft 349 kts 251°
2026-05-04 09:58 42.10753 -71.65437 20404 ft 352 kts 250°
2026-05-04 09:58 42.09809 -71.68468 20974 ft 353 kts 252°
2026-05-04 10:00 42.05921 -71.91373 24543 ft 369 kts 261°
2026-05-04 10:00 42.05418 -71.94752 24988 ft 372 kts 261°
2026-05-04 10:02 42.01761 -72.19099 27901 ft 389 kts 261°
2026-05-04 10:04 41.97893 -72.44443 30572 ft 399 kts 260°
2026-05-04 10:04 41.97340 -72.48032 31034 ft 398 kts 260°
2026-05-04 10:04 41.96776 -72.51683 31431 ft 396 kts 260°
2026-05-04 10:04 41.96222 -72.55267 31807 ft 395 kts 260°
2026-05-04 10:05 41.95601 -72.58874 32144 ft 395 kts 257°
2026-05-04 10:05 41.94766 -72.62372 32460 ft 395 kts 252°
2026-05-04 10:05 41.93717 -72.65750 32784 ft 395 kts 248°
2026-05-04 10:05 41.92443 -72.69042 33120 ft 396 kts 243°
2026-05-04 10:06 41.90989 -72.72131 33433 ft 396 kts 239°
2026-05-04 10:06 41.89314 -72.75102 33742 ft 398 kts 234°
2026-05-04 10:06 41.87484 -72.77835 34034 ft 399 kts 231°
2026-05-04 10:08 41.75919 -72.93662 35516 ft 396 kts 230°
2026-05-04 10:08 41.73984 -72.96295 35740 ft 396 kts 230°
2026-05-04 10:08 41.72068 -72.98899 35954 ft 396 kts 230°
2026-05-04 10:08 41.70122 -73.01542 36159 ft 397 kts 230°
2026-05-04 10:09 41.68182 -73.04176 36337 ft 397 kts 230°
2026-05-04 10:09 41.66246 -73.06802 36489 ft 399 kts 230°
2026-05-04 10:09 41.64312 -73.09422 36626 ft 401 kts 230°
2026-05-04 10:09 41.62362 -73.12060 36782 ft 401 kts 230°
2026-05-04 10:10 41.60387 -73.14730 36930 ft 403 kts 230°
2026-05-04 10:10 41.58439 -73.17362 37056 ft 404 kts 230°
2026-05-04 10:10 41.56440 -73.20060 37187 ft 405 kts 230°
2026-05-04 10:10 41.54481 -73.22701 37323 ft 406 kts 230°
2026-05-04 10:11 41.52490 -73.25384 37454 ft 407 kts 230°
2026-05-04 10:11 41.50484 -73.28080 37580 ft 408 kts 230°
2026-05-04 10:11 41.48505 -73.30741 37686 ft 409 kts 230°
2026-05-04 10:11 41.46513 -73.33437 37803 ft 410 kts 230°
2026-05-04 10:12 41.44514 -73.36166 37917 ft 410 kts 230°
2026-05-04 10:12 41.42490 -73.38933 37945 ft 411 kts 230°
2026-05-04 10:12 41.38472 -73.44411 37949 ft 412 kts 230°
2026-05-04 10:13 41.34487 -73.49826 37956 ft 411 kts 230°
2026-05-04 10:13 41.30489 -73.55249 37955 ft 411 kts 230°
2026-05-04 10:14 41.26698 -73.60908 37956 ft 408 kts 235°
2026-05-04 10:16 41.12505 -73.84300 37973 ft 407 kts 235°
2026-05-04 10:16 41.09009 -73.90192 37983 ft 407 kts 235°
2026-05-04 10:17 41.05506 -73.96077 37982 ft 407 kts 235°
2026-05-04 10:19 40.91457 -74.19533 37983 ft 407 kts 235°
2026-05-04 10:19 40.87934 -74.25384 37984 ft 407 kts 235°
2026-05-04 10:20 40.84423 -74.31207 37986 ft 407 kts 235°
2026-05-04 10:20 40.80908 -74.37024 37987 ft 407 kts 235°
2026-05-04 10:21 40.77390 -74.42835 37990 ft 407 kts 235°
2026-05-04 10:21 40.73848 -74.48679 37992 ft 407 kts 235°
2026-05-04 10:22 40.68546 -74.57402 37992 ft 407 kts 235°
2026-05-04 10:23 40.65020 -74.63191 37993 ft 407 kts 235°
2026-05-04 10:25 40.50159 -74.85709 38001 ft 409 kts 231°
2026-05-04 10:25 40.46297 -74.91165 37997 ft 410 kts 231°
2026-05-04 10:26 40.42417 -74.96631 38009 ft 410 kts 231°
2026-05-04 10:26 40.38549 -75.02074 38014 ft 410 kts 231°
2026-05-04 10:27 40.34666 -75.07528 38006 ft 409 kts 231°
2026-05-04 10:27 40.30774 -75.12987 38018 ft 410 kts 231°
2026-05-04 10:28 40.26878 -75.18437 38023 ft 410 kts 231°
2026-05-04 10:28 40.23018 -75.23831 38029 ft 409 kts 231°
2026-05-04 10:29 40.19123 -75.29262 38024 ft 409 kts 232°
2026-05-04 10:29 40.15231 -75.34679 38036 ft 409 kts 231°
2026-05-04 10:30 40.11345 -75.40078 38029 ft 409 kts 231°
2026-05-04 10:30 40.07489 -75.45427 38034 ft 408 kts 231°
2026-05-04 10:31 40.03601 -75.50810 38035 ft 408 kts 231°
2026-05-04 10:32 39.90138 -75.69774 38024 ft 406 kts 235°
2026-05-04 10:33 39.86589 -75.75446 38029 ft 405 kts 234°
2026-05-04 10:33 39.83028 -75.81130 38031 ft 405 kts 235°
2026-05-04 10:34 39.79477 -75.86796 38024 ft 405 kts 235°
2026-05-04 10:34 39.75923 -75.92455 38022 ft 405 kts 235°
2026-05-04 10:35 39.72375 -75.98094 38008 ft 405 kts 235°
2026-05-04 10:35 39.68800 -76.03767 38015 ft 405 kts 235°
2026-05-04 10:36 39.65228 -76.09419 38013 ft 405 kts 235°
2026-05-04 10:36 39.61680 -76.15029 38020 ft 406 kts 234°
2026-05-04 10:37 39.58070 -76.20671 38018 ft 405 kts 234°
2026-05-04 10:37 39.54435 -76.26250 38022 ft 405 kts 234°
2026-05-04 10:39 39.41268 -76.45281 38042 ft 408 kts 230°
2026-05-04 10:40 39.37291 -76.50491 38047 ft 408 kts 230°
2026-05-04 10:40 39.33311 -76.55692 38050 ft 408 kts 230°
2026-05-04 10:41 39.29314 -76.60905 38043 ft 408 kts 230°
2026-05-04 10:41 39.25323 -76.66101 38046 ft 408 kts 230°
2026-05-04 10:42 39.21326 -76.71291 38056 ft 408 kts 230°
2026-05-04 10:42 39.17341 -76.76461 38055 ft 408 kts 230°
2026-05-04 10:43 39.13350 -76.81630 38058 ft 408 kts 230°
2026-05-04 10:45 38.97386 -77.02217 38054 ft 406 kts 230°
2026-05-04 10:45 38.93424 -77.07320 38046 ft 407 kts 230°
2026-05-04 10:46 38.89423 -77.12460 38044 ft 407 kts 230°
2026-05-04 10:46 38.85434 -77.17574 38044 ft 407 kts 230°
2026-05-04 10:47 38.81433 -77.22696 38043 ft 407 kts 230°
2026-05-04 10:47 38.77425 -77.27819 38045 ft 408 kts 230°
2026-05-04 10:49 38.60757 -77.47601 38049 ft 410 kts 227°
2026-05-04 10:50 38.56530 -77.52472 38053 ft 410 kts 227°
2026-05-04 10:52 38.39585 -77.71912 38057 ft 411 kts 227°
2026-05-04 10:52 38.35358 -77.76745 38057 ft 410 kts 226°
2026-05-04 10:54 38.18377 -77.96069 38064 ft 411 kts 227°
2026-05-04 10:56 38.01431 -78.15401 38066 ft 407 kts 231°
2026-05-04 10:57 37.97627 -78.20654 38061 ft 405 kts 233°
2026-05-04 10:57 37.93890 -78.25968 38056 ft 404 kts 233°
2026-05-04 10:58 37.90155 -78.31274 38055 ft 405 kts 233°
2026-05-04 10:58 37.86407 -78.36594 38052 ft 405 kts 233°
2026-05-04 10:59 37.82686 -78.41871 38054 ft 404 kts 233°
2026-05-04 10:59 37.78937 -78.47176 38054 ft 404 kts 233°
2026-05-04 11:00 37.75197 -78.52461 38061 ft 403 kts 233°
2026-05-04 11:02 37.60255 -78.73485 38057 ft 404 kts 233°
2026-05-04 11:05 37.32043 -79.12819 38072 ft 405 kts 233°
2026-05-04 11:06 37.28255 -79.18057 38075 ft 405 kts 233°
2026-05-04 11:06 37.24214 -79.22995 38078 ft 409 kts 227°
2026-05-04 11:08 37.08089 -79.37955 37945 ft 414 kts 222°
2026-05-04 11:10 36.91502 -79.52316 37618 ft 414 kts 221°
2026-05-04 11:12 36.74600 -79.66531 33200 ft 439 kts 221°
2026-05-04 11:12 36.72072 -79.68645 32549 ft 438 kts 221°
2026-05-04 11:12 36.69546 -79.70752 31895 ft 437 kts 221°
2026-05-04 11:12 36.67027 -79.72855 31190 ft 437 kts 221°
2026-05-04 11:13 36.64521 -79.74949 30491 ft 435 kts 221°
2026-05-04 11:13 36.62029 -79.77032 29769 ft 433 kts 221°
2026-05-04 11:13 36.59537 -79.79109 29224 ft 426 kts 221°
2026-05-04 11:13 36.57122 -79.81117 28792 ft 419 kts 221°
2026-05-04 11:14 36.54710 -79.83124 28286 ft 414 kts 221°
2026-05-04 11:14 36.52317 -79.85117 27739 ft 410 kts 221°
2026-05-04 11:14 36.49979 -79.87064 27256 ft 406 kts 221°
2026-05-04 11:16 36.34108 -80.00220 24071 ft 373 kts 220°
2026-05-04 11:16 36.31985 -80.01971 23751 ft 370 kts 220°
2026-05-04 11:16 36.29848 -80.03741 23100 ft 372 kts 220°
2026-05-04 11:17 36.27676 -80.05533 22521 ft 371 kts 220°
2026-05-04 11:17 36.25541 -80.07291 22021 ft 368 kts 220°
2026-05-04 11:19 36.11005 -80.19241 18861 ft 351 kts 220°
2026-05-04 11:19 36.08988 -80.20898 18417 ft 349 kts 220°
2026-05-04 11:19 36.06985 -80.22541 17985 ft 347 kts 220°
2026-05-04 11:19 36.04967 -80.24196 17537 ft 345 kts 220°
2026-05-04 11:20 36.02972 -80.25830 17092 ft 344 kts 220°
2026-05-04 11:20 36.01002 -80.27443 16733 ft 339 kts 220°
2026-05-04 11:20 35.99057 -80.29029 16468 ft 332 kts 220°
2026-05-04 11:20 35.97144 -80.30592 16095 ft 330 kts 220°
2026-05-04 11:22 35.83925 -80.41369 13445 ft 310 kts 220°
2026-05-04 11:22 35.82207 -80.42908 13234 ft 302 kts 223°
2026-05-04 11:23 35.80657 -80.44634 12780 ft 298 kts 232°
2026-05-04 11:23 35.79304 -80.46507 12508 ft 293 kts 234°
2026-05-04 11:24 35.71478 -80.57400 10597 ft 278 kts 233°
2026-05-04 11:25 35.70192 -80.59154 10231 ft 278 kts 233°
2026-05-04 11:25 35.68888 -80.60928 9866 ft 277 kts 233°
2026-05-04 11:25 35.67605 -80.62675 9537 ft 275 kts 232°
2026-05-04 11:26 35.65060 -80.66130 8876 ft 273 kts 232°
2026-05-04 11:27 35.56279 -80.77980 6608 ft 264 kts 225°
2026-05-04 11:28 35.54819 -80.79338 6311 ft 264 kts 213°
2026-05-04 11:28 35.53187 -80.80348 6094 ft 260 kts 208°
2026-05-04 11:28 35.51623 -80.81390 6004 ft 249 kts 212°
2026-05-04 11:28 35.50129 -80.82465 5788 ft 245 kts 213°
2026-05-04 11:29 35.48686 -80.83530 5564 ft 242 kts 213°
2026-05-04 11:29 35.47250 -80.84602 5342 ft 238 kts 214°
2026-05-04 11:29 35.45853 -80.85650 5129 ft 234 kts 214°
2026-05-04 11:29 35.44488 -80.86678 4942 ft 230 kts 214°
2026-05-04 11:31 35.35567 -80.93404 3242 ft 191 kts 214°
2026-05-04 11:33 35.27513 -80.94039 1743 ft 134 kts 180°
2026-05-04 11:33 35.26610 -80.93965 1574 ft 130 kts 179°
2026-05-04 11:33 35.25706 -80.93890 1414 ft 129 kts 179°
2026-05-04 11:34 35.24815 -80.93814 1249 ft 128 kts 178°
2026-05-04 11:34 35.23918 -80.93738 1076 ft 128 kts 177°
2026-05-04 11:34 35.23040 -80.93663 903 ft 127 kts 177°
2026-05-04 11:34 35.22160 -80.93591 779 ft 125 kts 175°
2026-05-04 11:35 35.21368 -80.93522 759 ft 81 kts 176°
2026-05-04 11:35 35.21078 -80.93506 759 ft 31 kts 184°
2026-05-04 11:35 35.20940 -80.93568 759 ft 15 kts 266°
2026-05-04 11:35 35.21006 -80.93624 759 ft 3 kts 355°